Starlink 33788

operational
NORAD ID: 63589 Int'l Des: 2025-076 Owner: SPXS Country: US Constellation: starlink
LEOCIRCULAR

Über Starlink 33788

Beschreibung wird geladen...

Live-Position

3D-Globus wird geladen...

Nächste Überflüge

Höhenverlauf

Altitude vs Time

uPlot chart will show altitude changes over time

Zweizeiliger Elementsatz

1 63589U 25076W 25303.47873183 .00036415 00000-0 13248-2 0 9994
2 63589 43.0037 337.2890 0001012 266.1592 93.9144 15.27617968 31913
Epoch: 30. Okt. 2025 • Age: 64 hours

Aktueller Status

Höhe 481.7 km
Geschwindigkeit 7.63 km/s
Subsatellitenpunkt 17.67°N, 118.79°W
Startdatum 14. Apr. 2025
Alter 0.5 years
Typ internet

Technische Details

Klassifizierung Payload
Masse 575.00 kg
Trockenmasse 530.00 kg
Gesamtmasse 575.00 kg
Länge 0.30 m
Durchmesser 4.10 m
Spannweite 29.00 m
Form Box + pan
Hersteller SPXS
Bus-Typ Starlink V2MO
Phasenstatus In Orbit
Besitzer/Staat SPXS/US

Große Konstellationen

Loading constellations...